Swansboro, NC

6:35 PM EDT on June 28, 2017 (GMT -0400)
Bogue McAlf

Weather History for KNJM - November, 2012

Change the Weather History Date:

Sunday, November 4, 2012

  Actual Average (KNKT) Record (KNKT)
Temperature  
Mean Temperature 54 °F -  
Max Temperature 71 °F 66 °F 82 °F (2003)
Min Temperature 39 °F 45 °F 30 °F (1999)
Degree Days  
Heating Degree Days 12    
Growing Degree Days 4 (Base 50)    
Moisture  
Dew Point 43 °F    
Average Humidity 74    
Maximum Humidity 93    
Minimum Humidity 56    
Precipitation  
Precipitation 0.08 in - - ()
Sea Level Pressure  
Sea Level Pressure 30.01 in    
Wind  
Wind Speed 5 mph (NE)    
Max Wind Speed 13 mph    
Max Gust Speed -    
Visibility 10 miles    
Events Rain , Thunderstorm    
Averages and records for this station are not official NWS values.
T = Trace of Precipitation, MM = Missing Value Source: NWS Daily Summary

Daily Weather History Graph

Daily Weather History Graph

Search for Another Location

Airport or City:

Trip Planner

Search our weather history database for the weather conditions in past years. The results will help you decide how hot, cold, wet, or windy it might be!

Date:

Astronomy

Nov. 04, 2012 Rise Set
Actual Time 6:31 AM EST 5:11 PM EST
Civil Twilight 6:05 AM EST 5:37 PM EST
Nautical Twilight 5:35 AM EST 6:07 PM EST
Astronomical Twilight 5:06 AM EST 6:36 PM EST
Moon 9:49 PM EST (11/4) 11:11 AM EST (11/4)
Length of Visible Light 11h 31m
Length of Day
10h 39m
Waning Gibbous, 72% of the Moon is Illuminated
Nov 4
Waning Gibbous
Nov 6
Last Quarter
Nov 13
New
Nov 20
First Quarter
Nov 28
Full

Hourly Weather History & Observations

Time (EST) Temp. Windchill Dew Point Humidity Pressure Visibility Wind Dir Wind Speed Gust Speed Precip Events Conditions
12:57 AM 39.0 °F - 36.0 °F 89% 30.09 in 10.0 mi Calm Calm - N/A   Clear
1:57 AM 39.9 °F 37.8 °F 37.0 °F 89% 30.11 in 10.0 mi NNE 3.5 mph - N/A   Clear
1:57 AM 39.0 °F - 36.0 °F 89% 30.10 in 10.0 mi Calm Calm - N/A   Unknown
4:57 AM 39.9 °F 37.8 °F 37.0 °F 89% 30.07 in 10.0 mi NNE 3.5 mph - N/A   Clear
5:57 AM 39.0 °F 35.7 °F 37.0 °F 93% 30.07 in 10.0 mi ENE 4.6 mph - N/A   Partly Cloudy
6:57 AM 46.0 °F 43.1 °F 39.0 °F 76% 30.07 in 10.0 mi NE 5.8 mph - N/A   Partly Cloudy
7:57 AM 53.1 °F - 37.9 °F 57% 30.06 in 10.0 mi East 8.1 mph - N/A   Unknown
8:57 AM 55.9 °F - 41.0 °F 57% 30.04 in 10.0 mi East 10.4 mph - N/A   Scattered Clouds
9:57 AM 60.1 °F - 46.0 °F 60% 30.01 in 10.0 mi East 10.4 mph - N/A   Clear
12:53 PM 68.0 °F - 53.6 °F 60% 29.92 in 10.0 mi North 8.1 mph - N/A   Mostly Cloudy
12:57 PM 68.0 °F - 52.0 °F 56% 29.93 in 10.0 mi North 9.2 mph - N/A   Mostly Cloudy
1:07 PM 66.2 °F - 51.8 °F 60% 29.92 in 10.0 mi North 11.5 mph - N/A   Scattered Clouds
1:57 PM 64.0 °F - 50.0 °F 60% 29.93 in 10.0 mi NNE 11.5 mph - N/A   Clear
2:57 PM 61.0 °F - 46.9 °F 60% 29.95 in 10.0 mi NNE 12.7 mph - N/A   Clear
4:57 PM 53.1 °F - 43.0 °F 69% 29.98 in 10.0 mi NNE 5.8 mph - N/A   Partly Cloudy
5:57 PM 52.0 °F - 42.1 °F 69% 29.99 in 10.0 mi North 6.9 mph - N/A   Clear
6:57 PM 50.0 °F - 41.0 °F 71% 30.00 in 10.0 mi NNE 6.9 mph - N/A   Clear
7:57 PM 48.9 °F - 42.1 °F 77% 29.99 in 9.0 mi NE 6.9 mph - 0.00 in Rain , Thunderstorm Light Thunderstorms and Rain
9:23 PM 46.4 °F 42.4 °F 44.6 °F 93% 29.97 in 5.0 mi NE 8.1 mph - 0.07 in Rain Rain
9:57 PM 46.9 °F - 45.0 °F 93% 29.98 in 10.0 mi North 8.1 mph - 0.08 in   Partly Cloudy
10:20 PM 46.4 °F 42.4 °F 44.6 °F 93% 29.97 in 10.0 mi NNE 8.1 mph - N/A Thunderstorm Thunderstorm